Regional Weather Roundup
Issued by NWS San Angelo, TX

Home | Current Version | Previous Version | Text Only | Print | Product List | Glossary On
Versions: 1 2 3 4 5 6 7 8 9 10 11 12 13 14 15 16 17 18 19 20 21 22 23 24 25 26 27 28 29 30 31 32 33 34 35 36 37 38 39 40 41 42 43 44 45 46 47 48 49 50
000
ASUS44 KSJT 201010
RWRSJT
WEST CENTRAL TEXAS REGIONAL WEATHER ROUNDUP
NATIONAL WEATHER SERVICE SAN ANGELO TX
500 AM CDT SAT SEP 20 2014

NOTE: "FAIR" INDICATES FEW OR NO CLOUDS BELOW 12,000 FEET WITH NO
SIGNIFICANT WEATHER AND/OR OBSTRUCTIONS TO VISIBILITY.

TXZ049-054-064>066-071>073-076>078-098-099-113-114-127-128-139-140-
154-155-168>170-201100
...LOCATIONS ACROSS WEST CENTRAL TEXAS...

CITY           SKY/WX    TMP DP  RH WIND       PRES   REMARKS
SAN ANGELO     MOCLDY    73  70  90 E3        29.95S
ABILENE        MOCLDY    72  70  93 SE7       29.96F
DYESS AFB      PTCLDY    71  65  79 SE7       29.95F
JUNCTION       PTCLDY    73  71  93 CALM      29.95S
SWEETWATER     CLOUDY    73  71  94 SE12G21   30.00F
BROWNWOOD      CLOUDY    73  72  94 SE6       29.96S
COLEMAN        CLOUDY    73  71  94 SE6       29.96S
SONORA         MOCLDY    72  70  94 CALM      30.01R
OZONA          FAIR      72  68  88 S7        29.99F
BRADY          CLOUDY    72  72 100 SE6       29.95F
$$

TEXAS PANHANDLE/OKLAHOMA PANHANDLE

CITY           SKY/WX    TMP DP  RH WIND       PRES   REMARKS
AMARILLO       CLOUDY    65  64  97 S6        30.05F
BORGER         MOCLDY    66  62  87 CALM      30.04S
CANADIAN       PTCLDY    64  63  94 SE5       30.00F
DALHART        MOCLDY    65  62  90 SW7       30.07S
DUMAS          SUNNY     62  61  96 S6        30.05S FOG
GUYMON         NOT AVBL
HEREFORD       FOG       66  65  99 CALM      30.06S VSB 1
PAMPA          SUNNY     63  60  93 S7        30.05S FOG
PERRYTON       CLEAR     64  61  88 S8        30.02S
$$

SOUTHERN PANHANDLE/SOUTH PLAINS/ROLLING PLAINS

CITY           SKY/WX    TMP DP  RH WIND       PRES   REMARKS
LUBBOCK        RAIN      68  66  93 SE12      30.01S FOG
SNYDER         HVY RAIN  69  69  99 SE10      29.98S
CHILDRESS      CLOUDY    70  66  87 SE5       29.98F
SEMINOLE       HVY RAIN  69  69  99 CALM      30.00S
$$

PERMIAN BASIN

CITY           SKY/WX    TMP DP  RH WIND       PRES   REMARKS
MIDLAND        CLOUDY    71  69  93 SE9       29.96F
ODESSA         CLOUDY    70  68  93 SE9       29.98S
WINK           CLOUDY    71  70  96 E8        29.93F
$$

FAR WEST/SOUTHWEST MOUNTAINS/TRANS PECOS

CITY           SKY/WX    TMP DP  RH WIND       PRES   REMARKS
ALPINE         SUNNY     66  64  93 SW8       30.09S
DRYDEN           N/A     79  71  76 SE8       29.93R
EL PASO        PTCLDY    70  65  84 CALM      30.00S
FORT STOCKTON  MOCLDY    69  68  96 E3        29.96R
GUADALUPE PASS PTCLDY    65  61  87 W10         N/A
MARFA          CLEAR     61  59  94 NE3       30.09S
PECOS          CLOUDY    71  69  94 NE7       29.93S
$$

DALLAS/FORT WORTH METROPLEX

CITY           SKY/WX    TMP DP  RH WIND       PRES   REMARKS
DFW AIRPORT    PTCLDY    74  70  87 SE7       29.95S
FTW MEACHAM    CLEAR     75  69  81 SE6       29.95R
DAL-EXECUTIVE  CLEAR     74  70  87 SE6       29.95F
GRAND PRAIRIE  CLEAR     73  68  85 SE3       29.97S
ADDISON        CLEAR     75  68  78 SE6       29.98R
MESQUITE       SUNNY     71  69  94 CALM      29.96S
LANCASTER      SUNNY     70  67  92 CALM      29.97S FOG
$$

NORTH CENTRAL TEXAS

CITY           SKY/WX    TMP DP  RH WIND       PRES   REMARKS
SHRMAN/DENISON SUNNY     73  69  86 SE6       29.99S
GAINESVILLE    CLEAR     70  68  94 NE5       29.99S
BRIDGEPORT     PTSUNNY   69  69 100 CALM      29.98S
DENTON         CLEAR     73  69  87 SE5       29.96R
WAXAHACHIE     MOSUNNY   72  69  92 CALM      29.97S
GRANBURY       CLOUDY    75  71  87 E3        29.97S
$$

WESTERN NORTH TEXAS

CITY           SKY/WX    TMP DP  RH WIND       PRES   REMARKS
WICHITA FALLS  MOCLDY    71  68  90 SE5       29.96R
VERNON         PTSUNNY   72  67  84 E5        29.97S
BRECKENRIDGE   MOSUNNY   73  71  93 SE6       29.95S
COMANCHE       CLOUDY    73  72  97 CALM      29.96S
$$

CENTRAL AND SOUTH CENTRAL TEXAS

CITY           SKY/WX    TMP DP  RH WIND       PRES   REMARKS
AUSTIN/BERGSTM CLOUDY    74  73  97 CALM      29.92S
WACO           CLOUDY    74  72  93 SE8       29.94F
HILLSBORO      SUNNY     73  69  89 E6        29.95F
TEMPLE         CLOUDY    73  70  88 SE6       29.94S
KILLEEN-GRAY   CLOUDY    75  72  88 E7        29.94F
FORT HOOD      CLOUDY    76  73  91 SE6       29.94S
GEORGETOWN     CLOUDY    73  73 100 E3        29.94S
LAGO VISTA     CLOUDY    74  72  92 S3        29.95S
SAN MARCOS     CLOUDY    73  70  88 CALM      29.93S
NEW BRAUNFELS  CLOUDY    75  73  93 CALM      29.91S
RANDOLPH AFB   CLOUDY    75  73  94 E3        29.92F
SAN ANTONIO    MOCLDY    76  73  91 SE7       29.92F
STINSON        CLOUDY    76  74  93 E3        29.90S
PLEASANTON     NOT AVBL
LA GRANGE      CLEAR     75  75  99 CALM      29.91R
GIDDINGS       MOSUNNY   73  72  96 CALM      29.96S
$$

EAST TEXAS

CITY           SKY/WX    TMP DP  RH WIND       PRES   REMARKS
PARIS          CLEAR     70  64  83 E7        29.99S
CLARKSVILLE    NOT AVBL
TYLER          CLEAR     71  68  90 CALM      29.97S
LONGVIEW       CLEAR     69  66  90 E3        29.97R FOG
PALESTINE      MOSUNNY   71  71  99 CALM      29.97S
NACOGDOCHES    CLEAR     66  64  94 CALM      29.96S
$$

TEXAS HILL COUNTRY AND EDWARDS PLATEAU

CITY           SKY/WX    TMP DP  RH WIND       PRES   REMARKS
LLANO          MOSUNNY   73  73 100 CALM      29.97S FOG
HORSESHOE BAY  PTSUNNY   73  73 100 CALM      29.94S FOG
KERRVILLE      CLOUDY    72  69  93 CALM      29.96F
FREDERICKSBRG  CLOUDY    72  69  91 SE3       29.97R
ROCKSPRINGS    MOSUNNY   70  70 100 SE7       29.99S
HONDO          MOCLDY    75  73  93 E6        29.93F
UVALDE         CLOUDY    75  74  94 E6        29.93S
DEL RIO        CLOUDY    78  72  81 E9        29.89R
$$

SOUTHEAST TEXAS

CITY           SKY/WX    TMP DP  RH WIND       PRES   REMARKS
COLLEGE STN    MOCLDY    73  72  96 E6        29.93F
CALDWELL       FOG       73  73 100 CALM      29.96S VSB 3/4
CROCKETT       SUNNY     73  73 100 CALM      29.98S FOG
BRENHAM        PTCLDY    74  73  97 CALM      29.93S FOG
HUNTSVILLE     CLOUDY    71  70  96 CALM      29.94F FOG
CONROE         CLEAR     72  71  97 CALM      29.94S
HOUSTON BUSH   PTCLDY    73  72  96 NE7       29.91F
HOUSTON HOBBY  PTCLDY    75  74  96 NE6       29.90F
PERLAND        CLEAR     76  74  93 NE3       29.91F
WHARTON        SUNNY     73  72  96 CALM      29.90F
$$

THE UPPER TEXAS COAST

CITY           SKY/WX    TMP DP  RH WIND       PRES   REMARKS
ORANGE         SUNNY    N/A N/A N/A NE3       29.94S
PORT ARTHUR    CLEAR     74  72  93 NE6       29.92R
GALVESTON      PTCLDY    80  74  81 E8        29.90S
ANGLETON       PTCLDY    74  73  97 NE6       29.89F
BAY CITY       SUNNY    N/A N/A N/A CALM      29.88F
$$

TEXAS COASTAL BEND, RIO GRANDE PLAINS DEEP SOUTH TEXAS

CITY           SKY/WX    TMP DP  RH WIND       PRES   REMARKS
VICTORIA       MOCLDY    77  75  93 NE6       29.89F
BEEVILLE       FAIR      75  75 100 CALM      29.88S
ROCKPORT       CLEAR     80  76  87 E5        29.85F
PORT ARANSAS   SUNNY     82  76  83 SE3       29.85F
PORT LAVACA    PTSUNNY   76  75  96 E8        29.88S
CORPUS CHRISTI MOCLDY    78  75  90 SW8       29.85F
KINGSVILLE NAS CLEAR     76  76 100 SE3       29.85F
COTULLA        MOCLDY    78  73  84 E8        29.88S
LAREDO         MOCLDY    81  79  94 E8        29.87S
BROWNSVILLE    CLEAR     80  78  94 CALM      29.81F
PORT ISABEL    PTCLDY    82  78  88 E5        29.81F
HEBBRONVILLE   DRIZZLE   77  76  95 E6        29.87F
MCALLEN        PTCLDY    81  79  94 E5        29.83F
WESLACO        MOCLDY    80  77  90 CALM      29.82F FOG
FALFURRIAS     PTSUNNY  N/A N/A N/A E3        29.84F
EDINBURG       CLOUDY    82  78  89 NE3       29.83F FOG
$$



USA.gov is the U.S. government's official web portal to all federal, state and local government web resources and services.